{"data":{"norad_id":53903,"intl_designator":"2022-119T","name":"STARLINK-5022","alt_names":[],"object_type":"PAYLOAD","status":"ACTIVE","operator":null,"country":"US","launch_date":"2022-09-24","launch_site_code":"AFETR","launch_vehicle":null,"mission":null,"orbit_class":"UNKNOWN","rcs_meters":null,"size_class":null,"mass_kg":null,"dimensions":null,"purposes":["comms"],"wikipedia_slug":null,"has_3d_model":false,"image_url":null,"decayed_at":null,"tle_current":{"epoch":"2026-05-24T23:22:37.913952Z","epoch_age_seconds":77311,"freshness":"FRESH","line1":"1 53903U 22119T   26144.97404993  .00007177  00000+0  46883-3 0  9990","line2":"2 53903  53.2131 341.4722 0001314  83.3788 276.7353 15.08816528203200","mean_motion":15.08816528,"eccentricity":0.0001314,"inclination_deg":53.2131,"raan_deg":341.4722,"arg_perigee_deg":83.3788,"mean_anomaly_deg":276.7353,"bstar":0.00046883,"rev_number":20320,"period_min":95.439039358137,"perigee_km":538.90611549761,"apogee_km":540.7241533185299,"semimajor_km":6917.9521344081,"source":"CELESTRAK","updated_at":"2026-05-25T13:38:17.585007Z"}}}